Lafayette, Louisiana, United States (70501)
Lat: 30.22N, Lon: 92.02W
Wx Zone: LAZ044
Local Info
Past Weather Observations for Today

NOTE: This archive is for the closest National Weather Service station to Lafayette. Information may differ from the station used for current weather conditions.

Click here for Long-term Archive

Time Weather Temperature Dewpoint Humidity Pressure Winds Precip Visibility
21:53
Clear
75°F / 24°C 72°F / 22°C 89% 30.04 in
(1017 mb)
Calm - 10SM
20:53
Clear
79°F / 26°C 73°F / 23°C 84% 30.01 in
(1016 mb)
Calm - 10SM
19:53
Clear
81°F / 27°C 72°F / 22°C 74% 30.01 in
(1016 mb)
SSE 3.5 mph
(SSE 6 kph)
- 10SM
18:53
Clear
82°F / 28°C 72°F / 22°C 70% 29.98 in
(1015 mb)
S 3.5 mph
(S 6 kph)
- 10SM
17:53
Partly Cloudy
86°F / 30°C 68°F / 20°C 55% 29.98 in
(1015 mb)
S 6.9 mph
(S 11 kph)
- 10SM
16:53
Partly Cloudy
88°F / 31°C 70°F / 21°C 55% 29.98 in
(1015 mb)
Variable 6.9 mph
(Variable 11 kph)
- 10SM
15:53
Mostly Cloudy
88°F / 31°C 70°F / 21°C 55% 29.98 in
(1015 mb)
Variable 5.8 mph
(Variable 9 kph)
- 10SM
14:53
Mostly Cloudy
88°F / 31°C 70°F / 21°C 55% 30.01 in
(1016 mb)
Calm - 10SM
13:53
Partly Cloudy
88°F / 31°C 70°F / 21°C 55% 30.04 in
(1017 mb)
Calm - 10SM
12:53
Clear
90°F / 32°C 70°F / 21°C 52% 30.04 in
(1017 mb)
Calm - 10SM
11:53
Partly Cloudy
88°F / 31°C 68°F / 20°C 52% 30.04 in
(1017 mb)
Variable 4.6 mph
(Variable 7 kph)
- 10SM
10:53
Mostly Cloudy
88°F / 31°C 70°F / 21°C 55% 30.06 in
(1018 mb)
ENE 3.5 mph
(ENE 6 kph)
- 10SM
09:53
Mostly Cloudy
84°F / 29°C 70°F / 21°C 62% 30.06 in
(1018 mb)
E 3.5 mph
(E 6 kph)
- 10SM
08:53
Partly Cloudy
81°F / 27°C 72°F / 22°C 74% 30.06 in
(1018 mb)
ENE 3.5 mph
(ENE 6 kph)
- 10SM
07:53
Partly Cloudy
79°F / 26°C 70°F / 21°C 74% 30.06 in
(1018 mb)
NE 4.6 mph
(NE 7 kph)
- 10SM
06:53
Clear
73°F / 23°C 70°F / 21°C 89% 30.04 in
(1017 mb)
Calm - 10SM
05:53
Clear
68°F / 20°C 66°F / 19°C 94% 30.04 in
(1017 mb)
NNE 3.5 mph
(NNE 6 kph)
- 10SM
04:53
Clear
72°F / 22°C 70°F / 21°C 94% 30.01 in
(1016 mb)
Calm - 8SM
03:53
Clear
72°F / 22°C 70°F / 21°C 94% 30.01 in
(1016 mb)
Calm - 9SM
02:53
Clear
72°F / 22°C 68°F / 20°C 88% 30.01 in
(1016 mb)
Calm - 10SM
01:53
Clear
72°F / 22°C 70°F / 21°C 94% 30.01 in
(1016 mb)
Calm - 10SM
00:53
Clear
73°F / 23°C 70°F / 21°C 89% 30.01 in
(1016 mb)
Calm - 10SM
Time Weather Temperature Dewpoint Humidity Pressure Winds Precip Visibility


Weather for websites

WeatherForYou.com, LLC is not responsible for any damages or problems caused by this service. Current weather conditions are obtained from the closest station including government and personal stations which may have varying degrees of accuracy. Weather forecasts are derived from the NOAA NDFD. Like all things, this site belongs to Jesus Christ... He just trusts us to maintain it. If you have any questions or comments email webmaster@weatherforyou.com

Copyright © 2015, WeatherForYou.com LLC. All rights reserved.